Time,TemperatureF,DewpointF,PressureIn,WindDirection,WindDirectionDegrees,WindSpeedMPH,WindSpeedGustMPH,Humidity,HourlyPrecipIn,Conditions,Clouds,dailyrainin,SolarRadiationWatts/m^2,SoftwareType,DateUTC
2013-07-05 00:01:00,69.0,61.9,30.01,SSE,151,2.0,4.0,78,0.00,,CLR,0.00,0.00,VWS V14.01,2013-07-05 05:01:00,
2013-07-05 00:06:00,69.3,61.8,30.01,SSE,159,3.0,4.0,77,0.00,,CLR,0.00,0.00,VWS V14.01,2013-07-05 05:06:00,
2013-07-05 00:11:00,69.7,61.8,30.01,SSE,166,3.0,5.0,76,0.00,,CLR,0.00,0.00,VWS V14.01,2013-07-05 05:11:00,
2013-07-05 00:16:00,69.7,61.8,30.01,South,173,4.0,7.0,76,0.00,,CLR,0.00,0.00,VWS V14.01,2013-07-05 05:16:00,
2013-07-05 00:21:00,69.7,61.4,30.01,SE,137,3.0,4.0,75,0.00,,CLR,0.00,0.00,VWS V14.01,2013-07-05 05:21:00,
2013-07-05 00:26:00,69.9,61.6,30.01,SSE,152,4.0,4.0,75,0.00,,CLR,0.00,0.00,VWS V14.01,2013-07-05 05:26:00,
2013-07-05 00:31:00,70.0,61.7,30.01,South,170,3.0,4.0,75,0.00,,CLR,0.00,0.00,VWS V14.01,2013-07-05 05:31:00,
2013-07-05 00:36:00,70.1,61.8,30.01,SSE,150,2.0,5.0,75,0.00,,CLR,0.00,0.00,VWS V14.01,2013-07-05 05:36:00,
2013-07-05 00:41:00,70.1,61.4,30.01,SSE,157,2.0,3.0,74,0.00,,CLR,0.00,0.00,VWS V14.01,2013-07-05 05:41:00,
2013-07-05 00:46:00,69.7,61.4,30.01,SSE,149,1.0,3.0,75,0.00,,CLR,0.00,0.00,VWS V14.01,2013-07-05 05:46:00,
2013-07-05 00:51:00,69.4,61.5,30.01,SSE,155,2.0,5.0,76,0.00,,CLR,0.00,0.00,VWS V14.01,2013-07-05 05:51:00,
2013-07-05 00:56:00,69.0,61.5,30.01,South,172,2.0,4.0,77,0.00,,CLR,0.00,0.00,VWS V14.01,2013-07-05 05:56:00,
2013-07-05 01:01:00,68.6,61.5,30.01,SSE,166,3.0,5.0,78,0.00,,CLR,0.00,0.00,VWS V14.01,2013-07-05 06:01:00,
2013-07-05 01:06:00,68.3,61.2,30.01,South,171,2.0,4.0,78,0.00,,CLR,0.00,0.00,VWS V14.01,2013-07-05 06:06:00,
2013-07-05 01:11:00,68.1,61.3,30.01,SSE,156,2.0,5.0,79,0.00,,CLR,0.00,0.00,VWS V14.01,2013-07-05 06:11:00,
2013-07-05 01:16:00,68.4,61.6,30.01,SSW,201,1.0,4.0,79,0.00,,CLR,0.00,0.00,VWS V14.01,2013-07-05 06:16:00,
2013-07-05 01:21:00,68.1,61.3,30.01,South,172,3.0,4.0,79,0.00,,CLR,0.00,0.00,VWS V14.01,2013-07-05 06:21:00,
2013-07-05 01:26:00,67.9,61.5,30.01,SSE,153,2.0,3.0,80,0.00,,CLR,0.00,0.00,VWS V14.01,2013-07-05 06:26:00,
2013-07-05 01:31:00,68.1,61.3,30.01,South,171,3.0,4.0,79,0.00,,CLR,0.00,0.00,VWS V14.01,2013-07-05 06:31:00,
2013-07-05 01:36:00,68.0,61.6,30.01,SSE,149,2.0,2.0,80,0.00,,CLR,0.00,0.00,VWS V14.01,2013-07-05 06:36:00,
2013-07-05 01:41:00,68.1,61.3,30.01,SE,140,2.0,2.0,79,0.00,,CLR,0.00,0.00,VWS V14.01,2013-07-05 06:41:00,
2013-07-05 01:46:00,68.1,61.3,30.01,South,170,4.0,4.0,79,0.00,,CLR,0.00,0.00,VWS V14.01,2013-07-05 06:46:00,
2013-07-05 01:51:00,67.6,61.2,30.01,South,178,2.0,5.0,80,0.00,,CLR,0.00,0.00,VWS V14.01,2013-07-05 06:51:00,
2013-07-05 01:56:00,67.3,61.3,30.01,SSE,168,1.0,3.0,81,0.00,,CLR,0.00,0.00,VWS V14.01,2013-07-05 06:56:00,
2013-07-05 02:01:00,67.4,61.7,30.00,SSE,160,0.0,2.0,82,0.00,,CLR,0.00,0.00,VWS V14.01,2013-07-05 07:01:00,
2013-07-05 02:06:00,67.4,61.7,30.00,SSE,161,3.0,3.0,82,0.00,,CLR,0.00,0.00,VWS V14.01,2013-07-05 07:06:00,
2013-07-05 02:11:00,67.4,61.7,30.00,SSE,161,0.0,1.0,82,0.00,,CLR,0.00,0.00,VWS V14.01,2013-07-05 07:11:00,
2013-07-05 02:16:00,67.3,61.6,30.00,SE,144,6.0,6.0,82,0.00,,CLR,0.00,0.00,VWS V14.01,2013-07-05 07:16:00,
2013-07-05 02:22:00,67.0,61.3,30.00,SSE,151,0.0,1.0,82,0.00,,CLR,0.00,0.00,VWS V14.01,2013-07-05 07:22:00,
2013-07-05 02:27:00,66.7,61.0,30.00,SSE,151,0.0,1.0,82,0.00,,CLR,0.00,0.00,VWS V14.01,2013-07-05 07:27:00,
2013-07-05 02:32:00,66.7,61.0,30.00,SSE,151,0.0,1.0,82,0.00,,CLR,0.00,0.00,VWS V14.01,2013-07-05 07:32:00,
2013-07-05 02:37:00,66.7,61.4,30.00,SSE,153,0.0,1.0,83,0.00,,CLR,0.00,0.00,VWS V14.01,2013-07-05 07:37:00,
2013-07-05 02:42:00,66.9,61.2,30.00,SSE,153,0.0,1.0,82,0.00,,CLR,0.00,0.00,VWS V14.01,2013-07-05 07:42:00,
2013-07-05 02:47:00,66.8,61.1,30.00,SSE,153,0.0,3.0,82,0.00,,CLR,0.00,0.00,VWS V14.01,2013-07-05 07:47:00,
2013-07-05 02:52:00,66.4,61.1,30.00,SSE,160,2.0,2.0,83,0.00,,CLR,0.00,0.00,VWS V14.01,2013-07-05 07:52:00,
2013-07-05 02:57:00,66.1,60.8,30.00,SSE,160,2.0,3.0,83,0.00,,CLR,0.00,0.00,VWS V14.01,2013-07-05 07:57:00,
2013-07-05 03:02:00,66.2,60.5,30.00,South,183,3.0,4.0,82,0.00,,CLR,0.00,0.00,VWS V14.01,2013-07-05 08:02:00,
2013-07-05 03:07:00,66.1,60.5,30.00,South,180,2.0,5.0,82,0.00,,CLR,0.00,0.00,VWS V14.01,2013-07-05 08:07:00,
2013-07-05 03:12:00,66.4,60.7,30.00,South,185,1.0,4.0,82,0.00,,CLR,0.00,0.00,VWS V14.01,2013-07-05 08:12:00,
2013-07-05 03:17:00,66.7,61.0,30.00,SSW,195,4.0,6.0,82,0.00,,CLR,0.00,0.00,VWS V14.01,2013-07-05 08:17:00,
2013-07-05 03:22:00,66.7,60.3,30.00,SW,220,5.0,9.0,80,0.00,,CLR,0.00,0.00,VWS V14.01,2013-07-05 08:22:00,
2013-07-05 03:27:00,67.0,60.3,30.00,SSW,196,10.0,11.0,79,0.00,,CLR,0.00,0.00,VWS V14.01,2013-07-05 08:27:00,
2013-07-05 03:32:00,67.1,60.0,30.00,SSW,196,7.0,9.0,78,0.00,,CLR,0.00,0.00,VWS V14.01,2013-07-05 08:32:00,
2013-07-05 03:37:00,67.3,59.8,30.00,South,182,11.0,12.0,77,0.00,,CLR,0.00,0.00,VWS V14.01,2013-07-05 08:37:00,
2013-07-05 03:42:00,67.5,60.4,30.00,SSW,193,6.0,9.0,78,0.00,,CLR,0.00,0.00,VWS V14.01,2013-07-05 08:42:00,
2013-07-05 03:47:00,67.4,60.7,30.00,SSW,200,6.0,7.0,79,0.00,,CLR,0.00,0.00,VWS V14.01,2013-07-05 08:47:00,
2013-07-05 03:52:00,67.1,60.4,30.00,South,191,4.0,7.0,79,0.00,,CLR,0.00,0.00,VWS V14.01,2013-07-05 08:52:00,
2013-07-05 03:57:00,66.7,60.3,30.00,SSW,201,5.0,7.0,80,0.00,,CLR,0.00,0.00,VWS V14.01,2013-07-05 08:57:00,
2013-07-05 04:02:00,66.9,60.2,30.00,South,191,4.0,13.0,79,0.00,,CLR,0.00,0.00,VWS V14.01,2013-07-05 09:02:00,
2013-07-05 04:07:00,67.0,59.9,30.00,SSW,213,3.0,5.0,78,0.00,,CLR,0.00,0.00,VWS V14.01,2013-07-05 09:07:00,
2013-07-05 04:12:00,66.8,60.1,30.01,SW,219,4.0,6.0,79,0.00,,CLR,0.00,0.00,VWS V14.01,2013-07-05 09:12:00,
2013-07-05 04:17:00,66.6,59.9,30.01,SW,214,4.0,7.0,79,0.00,,CLR,0.00,0.00,VWS V14.01,2013-07-05 09:17:00,
2013-07-05 04:22:00,66.3,59.6,30.01,SSW,200,4.0,5.0,79,0.00,,CLR,0.00,0.00,VWS V14.01,2013-07-05 09:22:00,
2013-07-05 04:27:00,66.3,58.9,30.01,SW,215,7.0,9.0,77,0.00,,CLR,0.00,0.00,VWS V14.01,2013-07-05 09:27:00,
2013-07-05 04:32:00,66.4,59.0,30.01,SSW,208,6.0,10.0,77,0.00,,CLR,0.00,0.00,VWS V14.01,2013-07-05 09:32:00,
2013-07-05 04:38:00,66.2,58.8,30.01,SSW,204,6.0,7.0,77,0.00,,CLR,0.00,0.00,VWS V14.01,2013-07-05 09:38:00,
2013-07-05 04:43:00,66.1,58.7,30.01,SSW,211,5.0,9.0,77,0.00,,CLR,0.00,0.00,VWS V14.01,2013-07-05 09:43:00,
2013-07-05 04:48:00,65.9,58.9,30.01,SSW,192,10.0,10.0,78,0.00,,CLR,0.00,0.00,VWS V14.01,2013-07-05 09:48:00,
2013-07-05 04:53:00,66.0,58.6,30.01,South,191,8.0,9.0,77,0.00,,CLR,0.00,0.00,VWS V14.01,2013-07-05 09:53:00,
2013-07-05 04:58:00,66.1,58.7,30.01,SSW,207,5.0,7.0,77,0.00,,CLR,0.00,0.00,VWS V14.01,2013-07-05 09:58:00,
2013-07-05 05:03:00,65.8,58.8,30.01,SSW,199,4.0,6.0,78,0.00,,CLR,0.00,0.00,VWS V14.01,2013-07-05 10:03:00,
2013-07-05 05:08:00,65.8,58.8,30.02,SW,214,4.0,7.0,78,0.00,,CLR,0.00,0.00,VWS V14.01,2013-07-05 10:08:00,
2013-07-05 05:13:00,65.7,58.7,30.02,South,187,4.0,6.0,78,0.00,,CLR,0.00,0.00,VWS V14.01,2013-07-05 10:13:00,
2013-07-05 05:18:00,65.4,58.7,30.02,SSW,203,6.0,7.0,79,0.00,,CLR,0.00,0.00,VWS V14.01,2013-07-05 10:18:00,
2013-07-05 05:24:00,65.3,59.0,30.02,South,190,4.0,6.0,80,0.00,,CLR,0.00,0.00,VWS V14.01,2013-07-05 10:24:00,
2013-07-05 05:29:00,65.2,58.9,30.02,South,179,5.0,7.0,80,0.00,,CLR,0.00,0.00,VWS V14.01,2013-07-05 10:29:00,
2013-07-05 05:34:00,65.3,59.0,30.02,SSW,192,7.0,9.0,80,0.00,,CLR,0.00,0.00,VWS V14.01,2013-07-05 10:34:00,
2013-07-05 05:39:00,65.2,58.9,30.02,South,180,6.0,8.0,80,0.00,,CLR,0.00,0.00,VWS V14.01,2013-07-05 10:39:00,
2013-07-05 05:44:00,65.1,59.1,30.02,South,191,6.0,7.0,81,0.00,,CLR,0.00,0.00,VWS V14.01,2013-07-05 10:44:00,
2013-07-05 05:49:00,65.2,59.2,30.02,South,187,7.0,7.0,81,0.00,,CLR,0.00,5.00,VWS V14.01,2013-07-05 10:49:00,
2013-07-05 05:54:00,65.4,59.1,30.02,SSW,195,5.0,9.0,80,0.00,,CLR,0.00,9.00,VWS V14.01,2013-07-05 10:54:00,
2013-07-05 05:59:00,65.4,59.1,30.02,SSW,197,5.0,6.0,80,0.00,,CLR,0.00,11.00,VWS V14.01,2013-07-05 10:59:00,
2013-07-05 06:04:00,65.2,58.9,30.02,SSW,209,6.0,9.0,80,0.00,,CLR,0.00,14.00,VWS V14.01,2013-07-05 11:04:00,
2013-07-05 06:10:00,65.2,58.9,30.02,SSW,205,6.0,6.0,80,0.00,,CLR,0.00,18.00,VWS V14.01,2013-07-05 11:10:00,
2013-07-05 06:15:00,65.1,58.8,30.02,South,185,5.0,5.0,80,0.00,,CLR,0.00,21.00,VWS V14.01,2013-07-05 11:15:00,
2013-07-05 06:20:00,64.9,58.9,30.02,South,191,7.0,10.0,81,0.00,,CLR,0.00,25.00,VWS V14.01,2013-07-05 11:20:00,
2013-07-05 06:25:00,65.0,59.4,30.02,SSW,193,2.0,6.0,82,0.00,,CLR,0.00,28.00,VWS V14.01,2013-07-05 11:25:00,
2013-07-05 06:30:00,65.4,59.4,30.02,South,178,4.0,6.0,81,0.00,,CLR,0.00,39.00,VWS V14.01,2013-07-05 11:30:00,
2013-07-05 06:35:00,65.7,59.7,30.02,SSW,205,6.0,8.0,81,0.00,,CLR,0.00,58.00,VWS V14.01,2013-07-05 11:35:00,
2013-07-05 06:40:00,66.1,59.8,30.01,South,188,4.0,7.0,80,0.00,,CLR,0.00,70.00,VWS V14.01,2013-07-05 11:40:00,
2013-07-05 06:45:00,66.2,59.9,30.01,South,188,9.0,9.0,80,0.00,,CLR,0.00,83.00,VWS V14.01,2013-07-05 11:45:00,
2013-07-05 06:50:00,66.3,60.0,30.02,SSW,198,7.0,12.0,80,0.00,,CLR,0.00,98.00,VWS V14.01,2013-07-05 11:50:00,
2013-07-05 06:55:00,66.5,60.2,30.02,SSW,201,9.0,12.0,80,0.00,,CLR,0.00,114.00,VWS V14.01,2013-07-05 11:55:00,
2013-07-05 07:01:00,66.7,60.3,30.02,South,191,9.0,11.0,80,0.00,,CLR,0.00,130.00,VWS V14.01,2013-07-05 12:01:00,
2013-07-05 07:06:00,67.0,60.6,30.02,South,191,6.0,8.0,80,0.00,,CLR,0.00,146.00,VWS V14.01,2013-07-05 12:06:00,
2013-07-05 07:10:00,67.2,60.5,30.02,South,180,6.0,7.0,79,0.00,,CLR,0.00,163.00,VWS V14.01,2013-07-05 12:10:00,
2013-07-05 07:16:00,67.5,60.8,30.02,SSE,165,8.0,12.0,79,0.00,,CLR,0.00,179.00,VWS V14.01,2013-07-05 12:16:00,
2013-07-05 07:21:00,67.7,61.0,30.02,SW,219,4.0,9.0,79,0.00,,CLR,0.00,197.00,VWS V14.01,2013-07-05 12:21:00,
2013-07-05 07:26:00,68.0,60.9,30.02,SSW,197,6.0,10.0,78,0.00,,CLR,0.00,211.00,VWS V14.01,2013-07-05 12:26:00,
2013-07-05 07:31:00,68.2,61.5,30.02,South,189,4.0,8.0,79,0.00,,CLR,0.00,144.00,VWS V14.01,2013-07-05 12:31:00,
2013-07-05 07:36:00,68.5,61.4,30.03,SSW,198,8.0,9.0,78,0.00,,CLR,0.00,241.00,VWS V14.01,2013-07-05 12:36:00,
2013-07-05 07:41:00,68.6,61.5,30.03,South,183,6.0,6.0,78,0.00,,CLR,0.00,186.00,VWS V14.01,2013-07-05 12:41:00,
2013-07-05 07:46:00,68.8,61.7,30.03,South,185,3.0,6.0,78,0.00,,CLR,0.00,151.00,VWS V14.01,2013-07-05 12:46:00,
2013-07-05 07:51:00,68.8,62.0,30.03,SSE,153,4.0,6.0,79,0.00,,CLR,0.00,232.00,VWS V14.01,2013-07-05 12:51:00,
2013-07-05 07:56:00,68.8,61.7,30.03,South,189,4.0,6.0,78,0.00,,CLR,0.00,179.00,VWS V14.01,2013-07-05 12:56:00,
2013-07-05 08:01:00,68.9,62.1,30.03,SSE,168,5.0,7.0,79,0.00,,CLR,0.00,107.00,VWS V14.01,2013-07-05 13:01:00,
2013-07-05 08:06:00,69.2,62.4,30.03,South,187,4.0,5.0,79,0.00,,CLR,0.00,193.00,VWS V14.01,2013-07-05 13:06:00,
2013-07-05 08:12:00,69.5,63.1,30.03,South,183,5.0,6.0,80,0.00,,CLR,0.00,241.00,VWS V14.01,2013-07-05 13:12:00,
2013-07-05 08:17:00,69.6,62.4,30.03,SSE,162,3.0,8.0,78,0.00,,CLR,0.00,353.00,VWS V14.01,2013-07-05 13:17:00,
2013-07-05 08:22:00,69.7,62.5,30.02,South,185,9.0,11.0,78,0.00,,CLR,0.00,139.00,VWS V14.01,2013-07-05 13:22:00,
2013-07-05 08:27:00,70.0,62.8,30.02,South,191,3.0,10.0,78,0.00,,CLR,0.00,287.00,VWS V14.01,2013-07-05 13:27:00,
2013-07-05 08:32:00,70.5,63.7,30.03,South,170,4.0,5.0,79,0.00,,CLR,0.00,123.00,VWS V14.01,2013-07-05 13:32:00,
2013-07-05 08:37:00,70.7,63.1,30.03,South,182,3.0,7.0,77,0.00,,CLR,0.00,90.00,VWS V14.01,2013-07-05 13:37:00,
2013-07-05 08:42:00,71.2,64.0,30.03,SSE,162,4.0,9.0,78,0.00,,CLR,0.00,91.00,VWS V14.01,2013-07-05 13:42:00,
2013-07-05 08:47:00,71.5,63.9,30.03,SSW,209,5.0,7.0,77,0.00,,CLR,0.00,348.00,VWS V14.01,2013-07-05 13:47:00,
2013-07-05 08:52:00,71.8,63.8,30.03,SSW,194,3.0,6.0,76,0.00,,CLR,0.00,93.00,VWS V14.01,2013-07-05 13:52:00,
2013-07-05 08:57:00,72.2,63.8,30.03,SSW,207,5.0,9.0,75,0.00,,CLR,0.00,450.00,VWS V14.01,2013-07-05 13:57:00,
2013-07-05 09:02:00,72.5,64.9,30.03,South,191,4.0,9.0,77,0.00,,CLR,0.00,223.00,VWS V14.01,2013-07-05 14:02:00,
2013-07-05 09:08:00,72.9,64.9,30.03,SSE,163,5.0,7.0,76,0.00,,CLR,0.00,524.00,VWS V14.01,2013-07-05 14:08:00,
2013-07-05 09:13:00,73.3,65.3,30.03,South,177,6.0,9.0,76,0.00,,CLR,0.00,540.00,VWS V14.01,2013-07-05 14:13:00,
2013-07-05 09:18:00,73.7,64.9,30.03,SSE,162,5.0,7.0,74,0.00,,CLR,0.00,554.00,VWS V14.01,2013-07-05 14:18:00,
2013-07-05 09:23:00,74.3,66.2,30.03,South,174,5.0,6.0,76,0.00,,CLR,0.00,571.00,VWS V14.01,2013-07-05 14:23:00,
2013-07-05 09:28:00,74.6,65.8,30.03,South,185,6.0,7.0,74,0.00,,CLR,0.00,587.00,VWS V14.01,2013-07-05 14:28:00,
2013-07-05 09:33:00,74.8,65.2,30.03,South,178,4.0,6.0,72,0.00,,CLR,0.00,603.00,VWS V14.01,2013-07-05 14:33:00,
2013-07-05 09:39:00,75.5,66.6,30.03,SSW,194,8.0,10.0,74,0.00,,CLR,0.00,617.00,VWS V14.01,2013-07-05 14:39:00,
2013-07-05 09:44:00,75.6,66.3,30.03,South,180,6.0,8.0,73,0.00,,CLR,0.00,635.00,VWS V14.01,2013-07-05 14:44:00,
2013-07-05 09:49:00,76.3,66.2,30.02,South,189,6.0,9.0,71,0.00,,CLR,0.00,647.00,VWS V14.01,2013-07-05 14:49:00,
2013-07-05 09:54:00,76.4,66.3,30.02,SSE,161,3.0,6.0,71,0.00,,CLR,0.00,659.00,VWS V14.01,2013-07-05 14:54:00,
2013-07-05 09:59:00,76.7,65.8,30.03,SSE,155,5.0,7.0,69,0.00,,CLR,0.00,663.00,VWS V14.01,2013-07-05 14:59:00,
2013-07-05 10:04:00,77.2,66.7,30.02,SSW,196,7.0,8.0,70,0.00,,CLR,0.00,675.00,VWS V14.01,2013-07-05 15:04:00,
2013-07-05 10:09:00,77.7,66.7,30.02,South,182,7.0,10.0,69,0.00,,CLR,0.00,679.00,VWS V14.01,2013-07-05 15:09:00,
2013-07-05 10:14:00,78.1,66.3,30.02,SSW,196,10.0,11.0,67,0.00,,CLR,0.00,679.00,VWS V14.01,2013-07-05 15:14:00,
2013-07-05 10:20:00,78.1,67.1,30.02,SW,216,6.0,10.0,69,0.00,,CLR,0.00,677.00,VWS V14.01,2013-07-05 15:20:00,
2013-07-05 10:25:00,78.5,67.9,30.02,South,182,7.0,8.0,70,0.00,,CLR,0.00,696.00,VWS V14.01,2013-07-05 15:25:00,
2013-07-05 10:30:00,78.7,67.7,30.01,SE,135,5.0,8.0,69,0.00,,CLR,0.00,724.00,VWS V14.01,2013-07-05 15:30:00,
2013-07-05 10:35:00,79.0,68.0,30.01,SSE,167,5.0,13.0,69,0.00,,CLR,0.00,751.00,VWS V14.01,2013-07-05 15:35:00,
2013-07-05 10:40:00,79.0,67.6,30.01,South,191,5.0,11.0,68,0.00,,CLR,0.00,772.00,VWS V14.01,2013-07-05 15:40:00,
2013-07-05 10:45:00,79.2,67.7,30.01,South,172,5.0,10.0,68,0.00,,CLR,0.00,780.00,VWS V14.01,2013-07-05 15:45:00,
2013-07-05 10:50:00,79.7,68.6,30.01,SSW,201,6.0,10.0,69,0.00,,CLR,0.00,784.00,VWS V14.01,2013-07-05 15:50:00,
2013-07-05 10:55:00,79.7,68.2,30.01,South,184,9.0,11.0,68,0.00,,CLR,0.00,788.00,VWS V14.01,2013-07-05 15:55:00,
2013-07-05 11:00:00,80.0,68.5,30.01,SSW,199,9.0,11.0,68,0.00,,CLR,0.00,791.00,VWS V14.01,2013-07-05 16:00:00,
2013-07-05 11:06:00,80.1,68.2,30.01,South,187,11.0,12.0,67,0.00,,CLR,0.00,807.00,VWS V14.01,2013-07-05 16:06:00,
2013-07-05 11:11:00,80.5,68.1,30.01,SSW,196,6.0,10.0,66,0.00,,CLR,0.00,819.00,VWS V14.01,2013-07-05 16:11:00,
2013-07-05 11:16:00,80.5,67.2,30.01,SSW,192,11.0,13.0,64,0.00,,CLR,0.00,831.00,VWS V14.01,2013-07-05 16:16:00,
2013-07-05 11:21:00,80.5,66.8,30.01,SSW,197,13.0,16.0,63,0.00,,CLR,0.00,844.00,VWS V14.01,2013-07-05 16:21:00,
2013-07-05 11:26:00,81.1,67.8,30.01,SSW,197,9.0,11.0,64,0.00,,CLR,0.00,853.00,VWS V14.01,2013-07-05 16:26:00,
2013-07-05 11:31:00,81.3,68.9,30.01,South,180,8.0,10.0,66,0.00,,CLR,0.00,863.00,VWS V14.01,2013-07-05 16:31:00,
2013-07-05 11:36:00,81.5,67.7,30.01,South,187,11.0,14.0,63,0.00,,CLR,0.00,872.00,VWS V14.01,2013-07-05 16:36:00,
2013-07-05 11:41:00,81.6,67.3,30.01,SSW,199,9.0,13.0,62,0.00,,CLR,0.00,875.00,VWS V14.01,2013-07-05 16:41:00,
2013-07-05 11:46:00,81.8,67.1,30.01,South,180,9.0,13.0,61,0.00,,CLR,0.00,886.00,VWS V14.01,2013-07-05 16:46:00,
2013-07-05 11:51:00,81.9,68.1,30.01,South,181,10.0,14.0,63,0.00,,CLR,0.00,896.00,VWS V14.01,2013-07-05 16:51:00,
2013-07-05 11:56:00,82.0,67.2,30.01,South,187,8.0,12.0,61,0.00,,CLR,0.00,902.00,VWS V14.01,2013-07-05 16:56:00,
2013-07-05 12:01:00,82.5,68.6,30.01,South,190,7.0,11.0,63,0.00,,CLR,0.00,911.00,VWS V14.01,2013-07-05 17:01:00,
2013-07-05 12:06:00,82.7,69.8,30.01,South,191,10.0,14.0,65,0.00,,CLR,0.00,918.00,VWS V14.01,2013-07-05 17:06:00,
2013-07-05 12:11:00,82.7,68.4,30.00,South,191,12.0,14.0,62,0.00,,CLR,0.00,921.00,VWS V14.01,2013-07-05 17:11:00,
2013-07-05 12:16:00,82.5,67.2,30.00,SSW,193,14.0,16.0,60,0.00,,CLR,0.00,923.00,VWS V14.01,2013-07-05 17:16:00,
2013-07-05 12:21:00,82.6,68.7,30.00,SSW,201,11.0,16.0,63,0.00,,CLR,0.00,928.00,VWS V14.01,2013-07-05 17:21:00,
2013-07-05 12:26:00,83.0,70.0,30.00,SW,220,11.0,14.0,65,0.00,,CLR,0.00,933.00,VWS V14.01,2013-07-05 17:26:00,
2013-07-05 12:31:00,83.0,70.0,30.00,South,190,8.0,12.0,65,0.00,,CLR,0.00,932.00,VWS V14.01,2013-07-05 17:31:00,
2013-07-05 12:36:00,83.2,68.4,30.00,South,182,9.0,14.0,61,0.00,,CLR,0.00,937.00,VWS V14.01,2013-07-05 17:36:00,
2013-07-05 12:41:00,83.0,68.2,30.00,SSW,194,10.0,14.0,61,0.00,,CLR,0.00,942.00,VWS V14.01,2013-07-05 17:41:00,
2013-07-05 12:46:00,83.1,68.3,30.00,SSW,199,10.0,16.0,61,0.00,,CLR,0.00,935.00,VWS V14.01,2013-07-05 17:46:00,
2013-07-05 12:51:00,83.6,69.7,30.00,SSW,193,12.0,12.0,63,0.00,,CLR,0.00,947.00,VWS V14.01,2013-07-05 17:51:00,
2013-07-05 12:56:00,83.6,68.7,30.00,SSW,203,9.0,15.0,61,0.00,,CLR,0.00,949.00,VWS V14.01,2013-07-05 17:56:00,
2013-07-05 13:01:00,83.6,68.7,30.00,SSW,212,10.0,15.0,61,0.00,,CLR,0.00,951.00,VWS V14.01,2013-07-05 18:01:00,
2013-07-05 13:06:00,83.6,69.7,30.00,SSW,192,7.0,12.0,63,0.00,,CLR,0.00,951.00,VWS V14.01,2013-07-05 18:06:00,
2013-07-05 13:11:00,84.0,69.1,30.00,South,187,9.0,16.0,61,0.00,,CLR,0.00,925.00,VWS V14.01,2013-07-05 18:11:00,
2013-07-05 13:16:00,84.0,69.1,30.00,South,185,11.0,14.0,61,0.00,,CLR,0.00,949.00,VWS V14.01,2013-07-05 18:16:00,
2013-07-05 13:21:00,83.8,69.4,29.99,South,184,13.0,13.0,62,0.00,,CLR,0.00,946.00,VWS V14.01,2013-07-05 18:21:00,
2013-07-05 13:26:00,84.2,68.8,29.99,South,187,14.0,16.0,60,0.00,,CLR,0.00,958.00,VWS V14.01,2013-07-05 18:26:00,
2013-07-05 13:31:00,84.1,68.7,29.99,South,191,10.0,17.0,60,0.00,,CLR,0.00,953.00,VWS V14.01,2013-07-05 18:31:00,
2013-07-05 13:36:00,84.2,68.3,29.99,SSW,197,10.0,13.0,59,0.00,,CLR,0.00,953.00,VWS V14.01,2013-07-05 18:36:00,
2013-07-05 13:41:00,84.5,70.1,29.99,SSW,197,10.0,13.0,62,0.00,,CLR,0.00,947.00,VWS V14.01,2013-07-05 18:41:00,
2013-07-05 13:46:00,84.3,67.9,29.99,South,187,12.0,18.0,58,0.00,,CLR,0.00,946.00,VWS V14.01,2013-07-05 18:46:00,
2013-07-05 13:47:00,84.3,67.9,29.99,SSW,205,14.0,14.0,58,0.00,,CLR,0.00,946.00,VWS V14.01,2013-07-05 18:47:00,
2013-07-05 13:52:00,84.3,68.4,29.99,South,182,13.0,17.0,59,0.00,,CLR,0.00,914.00,VWS V14.01,2013-07-05 18:52:00,
2013-07-05 13:57:00,84.5,69.1,29.99,South,187,16.0,16.0,60,0.00,,CLR,0.00,937.00,VWS V14.01,2013-07-05 18:57:00,
2013-07-05 14:02:00,84.3,67.9,29.99,South,190,13.0,16.0,58,0.00,,CLR,0.00,854.00,VWS V14.01,2013-07-05 19:02:00,
2013-07-05 14:07:00,84.3,67.4,29.99,South,189,10.0,16.0,57,0.00,,CLR,0.00,940.00,VWS V14.01,2013-07-05 19:07:00,
2013-07-05 14:12:00,84.4,69.0,29.99,SSW,201,8.0,13.0,60,0.00,,CLR,0.00,933.00,VWS V14.01,2013-07-05 19:12:00,
2013-07-05 14:17:00,84.5,70.1,29.99,SSW,201,14.0,17.0,62,0.00,,CLR,0.00,935.00,VWS V14.01,2013-07-05 19:17:00,
2013-07-05 14:22:00,84.6,67.7,29.99,South,175,12.0,13.0,57,0.00,,CLR,0.00,918.00,VWS V14.01,2013-07-05 19:22:00,
2013-07-05 14:27:00,84.7,69.8,29.98,South,181,18.0,18.0,61,0.00,,CLR,0.00,905.00,VWS V14.01,2013-07-05 19:27:00,
2013-07-05 14:32:00,84.6,68.2,29.98,SSW,195,19.0,19.0,58,0.00,,CLR,0.00,911.00,VWS V14.01,2013-07-05 19:32:00,
2013-07-05 14:37:00,84.5,67.6,29.98,South,189,11.0,17.0,57,0.00,,CLR,0.00,911.00,VWS V14.01,2013-07-05 19:37:00,
2013-07-05 14:42:00,84.5,67.6,29.98,SSW,203,12.0,17.0,57,0.00,,CLR,0.00,895.00,VWS V14.01,2013-07-05 19:42:00,
2013-07-05 14:47:00,84.6,67.7,29.98,South,172,12.0,19.0,57,0.00,,CLR,0.00,889.00,VWS V14.01,2013-07-05 19:47:00,
2013-07-05 14:52:00,84.6,67.2,29.98,South,191,10.0,15.0,56,0.00,,CLR,0.00,889.00,VWS V14.01,2013-07-05 19:52:00,
2013-07-05 14:57:00,84.6,69.2,29.98,South,179,14.0,15.0,60,0.00,,CLR,0.00,874.00,VWS V14.01,2013-07-05 19:57:00,
2013-07-05 15:02:00,84.7,69.3,29.98,South,183,15.0,15.0,60,0.00,,CLR,0.00,867.00,VWS V14.01,2013-07-05 20:02:00,
2013-07-05 15:07:00,84.7,67.8,29.97,SSE,160,9.0,16.0,57,0.00,,CLR,0.00,870.00,VWS V14.01,2013-07-05 20:07:00,
2013-07-05 15:12:00,84.6,69.2,29.97,South,189,14.0,16.0,60,0.00,,CLR,0.00,867.00,VWS V14.01,2013-07-05 20:12:00,
2013-07-05 15:17:00,84.6,68.7,29.97,South,188,13.0,15.0,59,0.00,,CLR,0.00,844.00,VWS V14.01,2013-07-05 20:17:00,
2013-07-05 15:22:00,84.7,68.8,29.97,SSW,196,10.0,14.0,59,0.00,,CLR,0.00,846.00,VWS V14.01,2013-07-05 20:22:00,
2013-07-05 15:27:00,84.6,67.7,29.97,South,174,13.0,15.0,57,0.00,,CLR,0.00,826.00,VWS V14.01,2013-07-05 20:27:00,
2013-07-05 15:32:00,84.7,67.8,29.97,SSW,203,11.0,13.0,57,0.00,,CLR,0.00,817.00,VWS V14.01,2013-07-05 20:32:00,
2013-07-05 15:37:00,84.7,68.8,29.97,SSW,195,14.0,18.0,59,0.00,,CLR,0.00,810.00,VWS V14.01,2013-07-05 20:37:00,
2013-07-05 15:42:00,84.7,68.8,29.97,SSW,197,9.0,12.0,59,0.00,,CLR,0.00,686.00,VWS V14.01,2013-07-05 20:42:00,
2013-07-05 15:48:00,84.3,66.9,29.97,South,180,11.0,16.0,56,0.00,,CLR,0.00,758.00,VWS V14.01,2013-07-05 20:48:00,
2013-07-05 15:53:00,84.3,67.4,29.97,SSW,195,12.0,17.0,57,0.00,,CLR,0.00,763.00,VWS V14.01,2013-07-05 20:53:00,
2013-07-05 15:58:00,84.3,66.9,29.97,South,191,12.0,16.0,56,0.00,,CLR,0.00,766.00,VWS V14.01,2013-07-05 20:58:00,
2013-07-05 16:03:00,84.4,67.0,29.97,South,188,14.0,18.0,56,0.00,,CLR,0.00,768.00,VWS V14.01,2013-07-05 21:03:00,
2013-07-05 16:08:00,84.7,67.8,29.97,SSW,198,14.0,16.0,57,0.00,,CLR,0.00,765.00,VWS V14.01,2013-07-05 21:08:00,
2013-07-05 16:13:00,84.7,68.8,29.97,South,182,15.0,17.0,59,0.00,,CLR,0.00,712.00,VWS V14.01,2013-07-05 21:13:00,
2013-07-05 16:18:00,84.7,67.8,29.96,South,174,10.0,16.0,57,0.00,,CLR,0.00,782.00,VWS V14.01,2013-07-05 21:18:00,
2013-07-05 16:23:00,84.3,66.9,29.96,South,176,15.0,18.0,56,0.00,,CLR,0.00,557.00,VWS V14.01,2013-07-05 21:23:00,
2013-07-05 16:28:00,83.7,66.9,29.96,South,185,13.0,17.0,57,0.00,,CLR,0.00,450.00,VWS V14.01,2013-07-05 21:28:00,
2013-07-05 16:33:00,83.2,67.4,29.96,SSW,207,12.0,19.0,59,0.00,,CLR,0.00,624.00,VWS V14.01,2013-07-05 21:33:00,
2013-07-05 16:38:00,83.3,67.0,29.96,South,184,6.0,13.0,58,0.00,,CLR,0.00,381.00,VWS V14.01,2013-07-05 21:38:00,
2013-07-05 16:43:00,83.6,66.8,29.96,South,191,9.0,14.0,57,0.00,,CLR,0.00,519.00,VWS V14.01,2013-07-05 21:43:00,
2013-07-05 16:48:00,83.7,68.8,29.96,South,173,11.0,16.0,61,0.00,,CLR,0.00,708.00,VWS V14.01,2013-07-05 21:48:00,
2013-07-05 16:53:00,84.3,67.9,29.96,SSE,164,6.0,12.0,58,0.00,,CLR,0.00,696.00,VWS V14.01,2013-07-05 21:53:00,
2013-07-05 16:58:00,84.3,66.9,29.96,SSW,199,12.0,18.0,56,0.00,,CLR,0.00,682.00,VWS V14.01,2013-07-05 21:58:00,
2013-07-05 17:03:00,84.3,66.9,29.96,South,181,8.0,15.0,56,0.00,,CLR,0.00,643.00,VWS V14.01,2013-07-05 22:03:00,
2013-07-05 17:08:00,83.8,67.0,29.96,SSW,204,9.0,12.0,57,0.00,,CLR,0.00,323.00,VWS V14.01,2013-07-05 22:08:00,
2013-07-05 17:13:00,82.6,66.3,29.96,SSE,168,5.0,10.0,58,0.00,,CLR,0.00,174.00,VWS V14.01,2013-07-05 22:13:00,
2013-07-05 17:18:00,81.9,66.2,29.96,South,177,9.0,12.0,59,0.00,,CLR,0.00,216.00,VWS V14.01,2013-07-05 22:18:00,
2013-07-05 17:23:00,81.9,66.2,29.95,South,185,12.0,14.0,59,0.00,,CLR,0.00,243.00,VWS V14.01,2013-07-05 22:23:00,
2013-07-05 17:28:00,83.0,67.7,29.95,SSW,197,13.0,17.0,60,0.00,,CLR,0.00,621.00,VWS V14.01,2013-07-05 22:28:00,
2013-07-05 17:33:00,83.6,67.8,29.95,South,183,15.0,20.0,59,0.00,,CLR,0.00,601.00,VWS V14.01,2013-07-05 22:33:00,
2013-07-05 17:38:00,83.6,66.3,29.95,South,183,10.0,16.0,56,0.00,,CLR,0.00,550.00,VWS V14.01,2013-07-05 22:38:00,
2013-07-05 17:43:00,83.5,67.2,29.95,South,191,13.0,13.0,58,0.00,,CLR,0.00,524.00,VWS V14.01,2013-07-05 22:43:00,
2013-07-05 17:48:00,83.3,67.0,29.95,South,178,9.0,10.0,58,0.00,,CLR,0.00,485.00,VWS V14.01,2013-07-05 22:48:00,
2013-07-05 17:53:00,83.2,67.4,29.95,South,180,6.0,10.0,59,0.00,,CLR,0.00,462.00,VWS V14.01,2013-07-05 22:53:00,
2013-07-05 17:58:00,82.9,67.6,29.94,SSW,193,9.0,11.0,60,0.00,,CLR,0.00,445.00,VWS V14.01,2013-07-05 22:58:00,
2013-07-05 18:03:00,82.8,68.0,29.94,SSW,199,11.0,11.0,61,0.00,,CLR,0.00,424.00,VWS V14.01,2013-07-05 23:03:00,
2013-07-05 18:08:00,82.7,68.8,29.94,South,185,9.0,12.0,63,0.00,,CLR,0.00,408.00,VWS V14.01,2013-07-05 23:08:00,
2013-07-05 18:13:00,82.5,67.2,29.94,South,186,12.0,12.0,60,0.00,,CLR,0.00,390.00,VWS V14.01,2013-07-05 23:13:00,
2013-07-05 18:18:00,82.4,66.2,29.94,South,191,14.0,14.0,58,0.00,,CLR,0.00,374.00,VWS V14.01,2013-07-05 23:18:00,
2013-07-05 18:23:00,82.3,67.5,29.94,SSW,193,6.0,12.0,61,0.00,,CLR,0.00,355.00,VWS V14.01,2013-07-05 23:23:00,
2013-07-05 18:28:00,82.1,66.8,29.94,South,184,7.0,12.0,60,0.00,,CLR,0.00,338.00,VWS V14.01,2013-07-05 23:28:00,
2013-07-05 18:33:00,82.0,67.2,29.94,South,180,4.0,9.0,61,0.00,,CLR,0.00,322.00,VWS V14.01,2013-07-05 23:33:00,
2013-07-05 18:38:00,81.8,67.1,29.94,SSW,194,5.0,9.0,61,0.00,,CLR,0.00,304.00,VWS V14.01,2013-07-05 23:38:00,
2013-07-05 18:43:00,81.8,66.1,29.94,South,191,10.0,10.0,59,0.00,,CLR,0.00,285.00,VWS V14.01,2013-07-05 23:43:00,
2013-07-05 18:48:00,81.4,66.7,29.94,South,183,9.0,9.0,61,0.00,,CLR,0.00,267.00,VWS V14.01,2013-07-05 23:48:00,
2013-07-05 18:53:00,81.3,65.6,29.95,South,180,7.0,12.0,59,0.00,,CLR,0.00,255.00,VWS V14.01,2013-07-05 23:53:00,
2013-07-05 18:58:00,81.1,65.9,29.95,South,186,9.0,11.0,60,0.00,,CLR,0.00,151.00,VWS V14.01,2013-07-05 23:58:00,
2013-07-05 19:03:00,81.0,65.8,29.95,SSW,198,7.0,13.0,60,0.00,,CLR,0.00,84.00,VWS V14.01,2013-07-06 00:03:00,
2013-07-05 19:08:00,80.8,66.6,29.94,South,189,11.0,12.0,62,0.00,,CLR,0.00,72.00,VWS V14.01,2013-07-06 00:08:00,
2013-07-05 19:13:00,80.5,65.8,29.94,South,183,5.0,9.0,61,0.00,,CLR,0.00,62.00,VWS V14.01,2013-07-06 00:13:00,
2013-07-05 19:18:00,80.4,65.7,29.94,SSE,158,5.0,6.0,61,0.00,,CLR,0.00,58.00,VWS V14.01,2013-07-06 00:18:00,
2013-07-05 19:23:00,80.3,66.1,29.94,SSE,153,4.0,9.0,62,0.00,,CLR,0.00,54.00,VWS V14.01,2013-07-06 00:23:00,
2013-07-05 19:28:00,80.1,65.4,29.94,South,175,5.0,10.0,61,0.00,,CLR,0.00,53.00,VWS V14.01,2013-07-06 00:28:00,
2013-07-05 19:34:00,79.9,64.8,29.94,South,178,4.0,4.0,60,0.00,,CLR,0.00,51.00,VWS V14.01,2013-07-06 00:34:00,
2013-07-05 19:39:00,79.9,65.3,29.94,South,187,5.0,6.0,61,0.00,,CLR,0.00,49.00,VWS V14.01,2013-07-06 00:39:00,
2013-07-05 19:44:00,79.5,65.3,29.95,South,187,4.0,7.0,62,0.00,,CLR,0.00,44.00,VWS V14.01,2013-07-06 00:44:00,
2013-07-05 19:49:00,79.2,65.5,29.94,SE,137,6.0,6.0,63,0.00,,CLR,0.00,39.00,VWS V14.01,2013-07-06 00:49:00,
2013-07-05 19:54:00,78.9,65.7,29.94,South,174,4.0,6.0,64,0.00,,CLR,0.00,33.00,VWS V14.01,2013-07-06 00:54:00,
2013-07-05 19:59:00,78.7,65.5,29.94,South,169,1.0,5.0,64,0.00,,CLR,0.00,30.00,VWS V14.01,2013-07-06 00:59:00,
2013-07-05 20:04:00,78.7,65.5,29.95,SE,135,4.0,4.0,64,0.00,,CLR,0.00,23.00,VWS V14.01,2013-07-06 01:04:00,
2013-07-05 20:09:00,78.7,65.5,29.94,SSE,162,3.0,5.0,64,0.00,,CLR,0.00,19.00,VWS V14.01,2013-07-06 01:09:00,
2013-07-05 20:14:00,78.7,66.0,29.95,SSE,160,1.0,3.0,65,0.00,,CLR,0.00,16.00,VWS V14.01,2013-07-06 01:14:00,
2013-07-05 20:19:00,78.3,65.6,29.95,SSE,165,2.0,4.0,65,0.00,,CLR,0.00,14.00,VWS V14.01,2013-07-06 01:19:00,
2013-07-05 20:24:00,78.2,65.5,29.95,SSE,165,2.0,4.0,65,0.00,,CLR,0.00,11.00,VWS V14.01,2013-07-06 01:24:00,
2013-07-05 20:30:00,78.1,65.4,29.94,SSE,160,5.0,6.0,65,0.00,,CLR,0.00,9.00,VWS V14.01,2013-07-06 01:30:00,
2013-07-05 20:35:00,77.9,65.6,29.94,SSE,149,5.0,7.0,66,0.00,,CLR,0.00,5.00,VWS V14.01,2013-07-06 01:35:00,
2013-07-05 20:40:00,77.7,65.0,29.94,SSE,168,5.0,5.0,65,0.00,,CLR,0.00,5.00,VWS V14.01,2013-07-06 01:40:00,
2013-07-05 20:45:00,77.6,64.9,29.94,South,172,2.0,5.0,65,0.00,,CLR,0.00,0.00,VWS V14.01,2013-07-06 01:45:00,
2013-07-05 20:50:00,77.3,65.1,29.94,SSE,152,1.0,5.0,66,0.00,,CLR,0.00,0.00,VWS V14.01,2013-07-06 01:50:00,
2013-07-05 20:55:00,77.0,64.8,29.94,South,170,3.0,3.0,66,0.00,,CLR,0.00,0.00,VWS V14.01,2013-07-06 01:55:00,
2013-07-05 21:00:00,77.0,64.8,29.94,SE,143,2.0,5.0,66,0.00,,CLR,0.00,0.00,VWS V14.01,2013-07-06 02:00:00,
2013-07-05 21:05:00,76.8,64.6,29.94,SSE,153,2.0,5.0,66,0.00,,CLR,0.00,0.00,VWS V14.01,2013-07-06 02:05:00,
2013-07-05 21:10:00,76.6,64.4,29.94,SSE,165,2.0,4.0,66,0.00,,CLR,0.00,0.00,VWS V14.01,2013-07-06 02:10:00,
2013-07-05 21:15:00,76.4,64.2,29.95,SSE,153,3.0,5.0,66,0.00,,CLR,0.00,0.00,VWS V14.01,2013-07-06 02:15:00,
2013-07-05 21:20:00,76.3,64.1,29.95,SSE,153,1.0,4.0,66,0.00,,CLR,0.00,0.00,VWS V14.01,2013-07-06 02:20:00,
2013-07-05 21:25:00,76.1,64.4,29.95,SE,136,3.0,6.0,67,0.00,,CLR,0.00,0.00,VWS V14.01,2013-07-06 02:25:00,
2013-07-05 21:30:00,75.8,64.1,29.95,SSE,151,2.0,3.0,67,0.00,,CLR,0.00,0.00,VWS V14.01,2013-07-06 02:30:00,
2013-07-05 21:35:00,75.9,64.2,29.95,SE,144,1.0,4.0,67,0.00,,CLR,0.00,0.00,VWS V14.01,2013-07-06 02:35:00,
2013-07-05 21:40:00,75.8,64.1,29.95,SSE,148,2.0,4.0,67,0.00,,CLR,0.00,0.00,VWS V14.01,2013-07-06 02:40:00,
2013-07-05 21:45:00,75.3,64.0,29.95,SSE,149,2.0,3.0,68,0.00,,CLR,0.00,0.00,VWS V14.01,2013-07-06 02:45:00,
2013-07-05 21:50:00,75.2,63.9,29.96,South,180,0.0,3.0,68,0.00,,CLR,0.00,0.00,VWS V14.01,2013-07-06 02:50:00,
2013-07-05 21:55:00,75.3,64.0,29.96,SSE,155,2.0,4.0,68,0.00,,CLR,0.00,0.00,VWS V14.01,2013-07-06 02:55:00,
2013-07-05 22:00:00,75.1,63.8,29.96,SSE,160,3.0,4.0,68,0.00,,CLR,0.00,0.00,VWS V14.01,2013-07-06 03:00:00,
2013-07-05 22:05:00,75.0,63.7,29.96,South,178,4.0,5.0,68,0.00,,CLR,0.00,0.00,VWS V14.01,2013-07-06 03:05:00,
2013-07-05 22:10:00,74.9,64.1,29.97,SE,130,3.0,6.0,69,0.00,,CLR,0.00,0.00,VWS V14.01,2013-07-06 03:10:00,
2013-07-05 22:15:00,74.7,63.9,29.97,SSE,158,1.0,4.0,69,0.00,,CLR,0.00,0.00,VWS V14.01,2013-07-06 03:15:00,
2013-07-05 22:20:00,74.6,64.2,29.97,SSE,162,2.0,4.0,70,0.00,,CLR,0.00,0.00,VWS V14.01,2013-07-06 03:20:00,
2013-07-05 22:25:00,74.4,64.0,29.97,SSW,201,2.0,3.0,70,0.00,,CLR,0.00,0.00,VWS V14.01,2013-07-06 03:25:00,
2013-07-05 22:30:00,74.0,63.6,29.97,SSE,160,3.0,6.0,70,0.00,,CLR,0.00,0.00,VWS V14.01,2013-07-06 03:30:00,
2013-07-05 22:35:00,73.7,63.7,29.97,South,171,3.0,5.0,71,0.00,,CLR,0.00,0.00,VWS V14.01,2013-07-06 03:35:00,
2013-07-05 22:40:00,73.7,63.7,29.97,SSE,160,3.0,4.0,71,0.00,,CLR,0.00,0.00,VWS V14.01,2013-07-06 03:40:00,
2013-07-05 22:45:00,73.8,63.8,29.97,SSE,153,4.0,6.0,71,0.00,,CLR,0.00,0.00,VWS V14.01,2013-07-06 03:45:00,
2013-07-05 22:50:00,73.7,63.7,29.97,South,172,5.0,5.0,71,0.00,,CLR,0.00,0.00,VWS V14.01,2013-07-06 03:50:00,
2013-07-05 22:55:00,73.6,64.0,29.97,SSE,159,3.0,5.0,72,0.00,,CLR,0.00,0.00,VWS V14.01,2013-07-06 03:55:00,
2013-07-05 23:00:00,73.5,63.9,29.97,South,170,3.0,6.0,72,0.00,,CLR,0.00,0.00,VWS V14.01,2013-07-06 04:00:00,
2013-07-05 23:01:00,73.4,63.8,29.97,South,172,5.0,6.0,72,0.00,,CLR,0.00,0.00,VWS V14.01,2013-07-06 04:01:00,
2013-07-05 23:07:00,73.3,63.7,29.97,South,183,3.0,5.0,72,0.00,,CLR,0.00,0.00,VWS V14.01,2013-07-06 04:07:00,
2013-07-05 23:12:00,73.1,63.5,29.97,SSE,155,5.0,5.0,72,0.00,,CLR,0.00,0.00,VWS V14.01,2013-07-06 04:12:00,
2013-07-05 23:17:00,73.2,63.6,29.97,SSE,149,3.0,10.0,72,0.00,,CLR,0.00,0.00,VWS V14.01,2013-07-06 04:17:00,
2013-07-05 23:22:00,73.0,63.5,29.98,SSE,167,3.0,6.0,72,0.00,,CLR,0.00,0.00,VWS V14.01,2013-07-06 04:22:00,
2013-07-05 23:27:00,73.0,63.5,29.98,South,178,3.0,6.0,72,0.00,,CLR,0.00,0.00,VWS V14.01,2013-07-06 04:27:00,
2013-07-05 23:32:00,72.7,63.5,29.98,South,181,3.0,7.0,73,0.00,,CLR,0.00,0.00,VWS V14.01,2013-07-06 04:32:00,
2013-07-05 23:37:00,72.6,63.5,29.98,South,179,5.0,7.0,73,0.00,,CLR,0.00,0.00,VWS V14.01,2013-07-06 04:37:00,
2013-07-05 23:42:00,72.6,63.5,29.98,South,174,4.0,4.0,73,0.00,,CLR,0.00,0.00,VWS V14.01,2013-07-06 04:42:00,
2013-07-05 23:47:00,72.6,63.8,29.98,SSE,163,4.0,5.0,74,0.00,,CLR,0.00,0.00,VWS V14.01,2013-07-06 04:47:00,
2013-07-05 23:52:00,72.5,63.8,29.98,SSE,151,4.0,5.0,74,0.00,,CLR,0.00,0.00,VWS V14.01,2013-07-06 04:52:00,
2013-07-05 23:57:00,72.5,63.8,29.98,South,183,3.0,5.0,74,0.00,,CLR,0.00,0.00,VWS V14.01,2013-07-06 04:57:00,